Theta_e
275 274 274 274 273 273 273 272 272 272 271 271 271 272 272 272 272 273 273 273 273 273 273 273 273 272 272 272 272 272 272 272 272 272 273 274 275 276 277 278 279 281 283 286 289 291 293 294 294 294 294 295 296 298 299 300 299 300 301 302 306 313 316 318 319 314 312 313 314 315 317 318 318 317 317 318 320 320 320 319 319 319 319 318 319
274 274 273 273 273 272 272 272 271 271 271 271 271 271 272 272 272 272 273 273 273 273 272 272 272 272 271 271 271 271 271 272 272 272 273 274 274 275 276 278 279 282 284 287 289 291 292 293 294 293 293 294 295 296 299 300 299 300 301 303 307 313 315 316 316 312 309 310 311 313 315 317 317 317 316 317 318 319 319 318 318 319 319 318 318
274 273 272 272 272 272 271 271 271 271 271 271 271 271 271 272 272 272 272 272 272 272 272 271 271 271 270 271 271 271 272 272 273 273 273 274 274 275 276 278 279 281 282 285 289 291 292 293 293 293 293 293 293 294 297 300 300 300 301 303 308 313 314 314 312 311 309 309 309 311 313 315 316 316 316 317 317 318 317 317 317 318 318 318 317
273 272 272 272 271 271 271 270 270 270 270 271 271 271 271 271 271 271 271 271 271 271 271 270 270 270 270 270 271 271 271 272 272 273 274 274 275 275 277 278 279 280 281 283 287 290 292 292 292 292 292 292 293 293 295 299 300 300 301 302 308 313 313 312 311 310 309 308 308 310 313 314 315 315 315 315 316 317 317 317 317 317 317 317 316
272 271 271 271 271 270 270 270 270 270 270 270 270 271 271 271 271 271 271 270 270 270 270 269 269 269 269 270 270 271 271 271 271 272 273 273 274 275 276 277 277 278 280 281 284 288 291 291 291 291 291 292 292 292 294 297 300 301 301 303 308 313 312 311 311 310 309 308 308 309 312 313 313 314 314 314 314 315 316 316 316 316 316 316 315
271 271 270 270 270 270 270 269 269 269 269 269 270 270 270 270 270 270 269 269 269 268 268 269 269 269 269 269 270 270 270 271 271 271 271 272 273 273 274 275 276 277 279 280 282 285 289 291 291 291 291 291 292 292 293 295 298 301 301 303 308 312 311 310 310 309 309 308 307 308 309 311 311 312 313 314 314 313 313 314 315 315 315 315 315
270 270 270 269 269 269 269 269 269 269 269 269 270 270 270 269 269 269 268 268 268 268 268 268 268 268 269 269 269 270 270 270 271 271 271 272 272 273 274 274 275 276 278 279 281 283 287 290 290 291 291 291 291 291 292 293 296 299 301 303 307 310 309 309 309 308 308 307 307 307 307 309 310 310 312 313 313 312 312 311 311 313 314 315 315
270 269 269 268 268 268 268 268 268 268 268 269 269 269 268 268 268 267 267 267 267 267 267 267 267 268 268 269 269 270 270 270 270 271 271 272 272 273 274 274 275 276 277 279 281 283 286 289 290 290 290 291 290 290 291 292 294 297 299 302 307 308 308 308 308 307 307 306 306 306 306 307 308 309 310 311 310 310 311 311 309 310 312 314 314
269 268 268 268 268 268 267 267 267 268 268 268 268 267 267 267 267 267 266 266 267 267 267 267 267 267 268 269 269 270 270 270 270 271 271 272 273 274 275 275 275 276 278 279 281 284 287 289 290 290 290 290 290 290 290 291 291 293 295 299 305 307 306 307 307 306 306 305 305 306 305 305 305 306 307 308 309 310 311 311 310 310 312 312 313
268 267 267 267 267 267 267 267 267 267 267 267 266 266 266 266 266 266 266 266 266 266 266 267 267 267 268 269 269 270 270 270 271 271 272 273 274 275 277 277 278 278 279 280 282 284 286 288 289 289 289 289 290 290 290 290 291 292 293 296 302 306 305 305 307 306 305 305 305 305 305 305 304 305 307 308 310 310 310 311 309 308 310 309 309
267 267 267 267 266 266 266 267 267 266 266 265 265 265 265 265 265 265 265 266 266 266 266 267 267 268 268 269 269 270 270 271 271 272 273 274 275 276 276 277 278 279 280 281 282 283 285 287 288 288 289 289 289 290 290 290 291 293 294 295 299 304 306 305 305 306 305 305 304 304 305 305 304 306 308 308 309 310 310 310 308 306 307 307 306
266 266 266 266 266 266 266 266 265 265 264 264 264 264 264 264 265 265 266 266 266 267 267 267 267 268 269 269 270 270 270 271 272 273 274 274 275 276 276 277 278 279 280 281 282 283 284 286 287 288 289 289 290 290 290 290 291 292 295 296 299 303 307 307 307 306 305 305 304 304 305 305 304 306 308 308 308 309 310 310 308 306 307 307 307
266 266 266 266 265 265 265 265 264 264 263 264 264 264 264 264 265 265 266 266 267 267 267 267 268 269 269 270 270 270 271 271 272 274 274 275 276 276 277 278 278 279 280 281 282 283 284 285 287 288 289 289 290 290 290 290 291 292 295 298 300 303 306 309 309 308 307 306 305 304 305 305 305 306 308 309 308 309 309 308 307 307 308 308 308
265 265 265 265 265 265 264 263 263 263 263 263 263 263 264 264 265 266 266 267 267 267 268 268 269 269 270 270 271 271 271 272 273 274 275 275 276 276 277 278 279 280 281 282 282 283 283 285 286 288 289 289 290 290 290 290 290 292 294 297 300 303 305 308 308 309 308 307 306 306 306 307 306 307 308 309 309 309 309 308 307 308 308 308 309
265 265 265 264 264 263 263 262 262 262 262 263 263 263 264 265 265 266 266 267 267 267 267 268 268 269 270 271 271 271 271 272 273 274 275 276 277 277 277 278 279 280 281 282 283 283 284 285 285 287 288 289 289 290 290 290 290 291 293 296 300 303 305 307 307 307 308 308 308 307 307 308 308 308 308 309 309 309 309 309 308 307 307 307 306
264 264 264 264 263 262 262 261 261 261 262 262 263 263 264 265 266 266 266 266 266 266 267 267 268 269 270 271 271 272 272 273 274 275 276 277 277 278 278 278 279 280 281 282 283 283 284 285 286 286 287 288 289 289 290 290 290 291 292 295 300 304 305 307 308 308 308 308 308 308 309 309 308 308 309 309 309 308 308 307 307 306 306 305 302
263 263 263 262 262 261 261 261 261 261 261 262 263 264 264 265 265 265 266 266 266 266 266 267 268 269 270 271 271 272 273 273 275 276 276 277 277 278 278 278 279 280 281 282 283 283 283 284 285 287 288 288 289 289 290 290 290 291 292 295 300 303 304 306 307 307 308 308 308 309 309 309 309 309 309 309 308 308 307 305 305 305 306 305 301
262 262 262 261 261 260 260 260 260 261 261 262 263 264 264 265 265 265 265 265 265 265 266 267 268 268 270 271 272 273 274 274 275 276 277 277 278 278 278 278 279 279 281 282 283 283 283 283 284 286 288 289 289 290 290 290 290 291 292 295 299 302 304 305 305 305 307 307 308 309 308 308 308 308 308 308 308 308 308 306 305 306 306 305 302
261 261 261 260 260 260 260 260 260 261 261 262 263 264 264 264 264 264 264 264 264 265 266 266 268 269 270 271 272 274 275 275 276 277 277 278 278 278 278 278 279 280 281 281 282 283 283 284 284 286 288 289 290 290 290 290 290 290 291 294 299 301 303 305 305 304 305 305 306 306 307 306 307 307 307 307 308 309 309 308 307 306 306 305 303
260 260 260 260 260 260 260 260 261 261 262 262 263 263 264 264 264 264 264 264 264 265 266 267 268 269 270 271 273 274 275 276 277 277 278 278 279 279 279 279 279 281 282 282 283 283 284 284 286 287 288 289 290 291 291 291 291 290 290 293 298 301 303 305 305 304 304 304 304 305 305 305 305 305 306 306 307 308 309 309 308 307 307 305 304
260 260 260 259 260 260 261 261 261 261 262 263 263 263 263 263 263 263 263 264 265 265 266 267 268 269 270 271 273 273 275 277 277 278 278 279 279 280 280 280 280 281 282 283 284 285 285 285 287 288 289 290 290 291 291 291 291 291 290 292 296 301 304 304 304 304 303 303 303 303 303 304 304 304 304 304 305 306 307 307 308 308 308 306 304
260 260 259 259 260 260 261 261 261 262 262 263 262 262 263 263 263 263 263 264 265 265 266 267 268 269 270 272 273 273 275 275 276 277 279 280 281 281 281 281 281 282 283 283 284 285 286 286 286 287 288 290 290 291 291 291 291 291 291 292 295 300 304 304 303 303 302 302 302 301 302 302 302 302 303 303 304 305 306 306 307 308 308 307 306
260 259 259 259 260 260 261 261 261 262 262 262 262 262 262 263 263 263 264 264 265 266 267 267 268 270 271 272 273 273 274 274 274 276 278 280 281 282 282 282 282 283 283 284 284 285 286 287 287 287 288 289 290 290 291 292 292 292 292 293 296 300 303 303 302 302 301 301 300 300 300 301 301 301 302 303 303 304 306 306 306 307 308 307 307
260 259 259 259 260 260 260 261 261 262 262 262 262 262 262 262 263 263 264 264 265 266 267 268 269 270 271 272 272 273 273 273 273 275 276 278 279 281 282 284 284 284 285 285 285 286 286 287 288 288 288 289 290 291 291 292 292 292 293 295 297 300 302 301 301 301 300 300 299 299 299 300 301 301 302 303 303 303 304 305 305 306 306 306 306
259 259 259 259 259 260 260 261 261 261 261 261 261 262 262 262 262 263 264 265 265 266 267 268 269 270 271 272 272 272 272 272 273 274 275 277 278 279 281 283 284 285 286 286 287 287 287 288 288 289 289 290 290 291 292 292 292 292 293 296 298 300 301 301 301 300 300 299 299 300 300 300 301 302 302 303 302 302 302 303 303 304 304 304 304
259 259 259 259 259 260 260 260 261 261 261 261 261 261 262 262 262 264 264 265 265 266 268 269 269 270 271 272 272 271 271 272 272 273 274 276 277 278 279 281 282 285 286 288 288 288 288 289 289 289 290 290 291 291 292 292 292 292 294 297 299 300 300 300 300 300 300 300 300 300 300 300 301 301 301 301 301 301 301 302 302 302 303 303 302
258 258 259 259 259 259 260 260 260 260 261 261 261 261 261 262 263 264 264 265 266 267 269 269 269 270 271 271 271 271 271 271 272 273 275 276 277 278 279 280 281 283 286 288 289 289 289 290 290 290 291 291 291 291 291 292 292 292 294 297 299 300 300 300 301 301 301 301 301 301 301 300 300 300 300 300 300 300 300 301 301 300 301 302 301
258 258 258 258 259 259 260 260 259 260 260 260 260 260 261 262 263 264 264 265 267 268 269 269 269 270 271 271 270 271 271 271 272 274 275 276 277 278 278 280 281 283 285 288 289 289 290 290 290 291 291 291 291 291 291 291 291 292 294 297 299 300 300 300 301 301 301 301 301 300 300 299 299 299 299 299 300 300 300 300 300 300 300 300 299
259 258 258 258 258 259 259 259 259 259 259 260 260 260 261 262 263 264 265 266 267 268 269 269 269 270 271 270 270 270 271 272 273 274 275 276 277 278 279 280 281 282 284 287 289 289 289 290 290 290 290 291 291 291 291 291 292 293 295 298 299 299 300 300 300 300 301 301 300 299 298 298 298 298 298 299 299 299 299 299 300 299 299 300 300
259 258 258 258 258 259 259 259 259 259 259 259 260 260 261 262 263 264 265 266 267 268 268 268 269 270 271 270 270 270 271 272 273 274 274 275 276 277 278 280 282 283 284 287 289 290 290 290 290 290 291 291 291 291 292 292 293 294 296 298 299 299 299 300 300 300 300 300 300 299 298 298 298 298 298 298 298 298 298 299 299 299 298 299 300
258 258 258 258 258 258 258 258 258 258 259 259 259 259 260 261 262 263 264 265 266 267 267 267 268 269 270 270 269 269 270 271 272 273 273 274 275 276 277 280 283 286 286 287 289 291 291 291 291 291 291 292 292 292 292 293 294 295 297 298 299 299 299 299 300 300 300 300 299 298 298 298 297 297 298 298 297 297 297 298 299 298 298 299 300
258 258 258 258 258 258 258 258 258 258 258 259 259 259 259 259 260 262 263 263 264 265 265 265 266 267 269 270 269 269 269 270 271 271 272 272 273 274 275 276 280 285 289 290 291 292 292 291 292 292 292 292 292 293 293 294 295 296 297 298 298 299 299 299 300 300 300 299 298 298 298 298 297 297 297 297 297 296 296 297 297 298 298 299 300
258 258 258 258 258 258 258 257 257 257 258 258 258 258 258 258 258 260 261 262 263 264 264 264 264 265 267 268 268 268 268 269 269 270 270 271 270 271 272 273 275 278 283 286 288 291 292 293 293 293 292 293 293 294 294 295 296 297 298 298 298 299 299 299 299 300 300 299 298 298 297 298 297 297 297 297 296 296 296 296 296 297 297 298 299
258 258 258 258 258 258 257 257 257 257 258 258 258 258 258 258 258 258 259 260 261 262 262 262 262 264 265 267 267 266 266 267 268 268 268 269 268 268 270 272 272 272 272 274 277 280 284 288 291 293 294 294 294 294 295 296 297 297 298 298 298 299 299 299 299 299 299 299 298 298 297 298 297 297 297 296 296 296 296 296 296 296 296 297 298
259 258 258 258 258 258 257 257 257 257 258 258 257 257 257 258 258 258 258 258 259 259 259 260 261 262 263 265 266 265 264 265 266 266 266 267 266 265 266 267 267 266 266 268 270 273 274 277 280 284 288 293 295 296 295 296 297 298 298 298 298 298 298 298 299 299 299 298 298 297 297 297 297 297 297 296 296 296 296 296 296 296 296 296 297
259 259 259 258 258 258 257 257 257 257 257 257 257 257 257 257 257 257 258 258 258 258 258 258 259 261 262 263 264 263 263 263 263 263 264 264 263 263 262 262 263 264 264 265 267 270 271 271 272 274 277 282 290 296 297 297 297 298 298 298 298 298 298 298 298 298 298 298 298 297 297 297 297 297 297 297 296 296 296 296 296 295 295 296 296
260 259 259 258 258 258 258 257 257 257 257 257 257 257 257 257 257 257 257 257 257 258 258 258 258 259 260 262 263 262 260 261 261 261 261 261 261 261 260 260 261 263 264 264 265 267 269 270 271 271 271 273 279 287 294 297 298 297 298 298 298 298 298 298 298 298 298 298 298 297 297 297 297 297 297 297 296 296 296 296 295 295 295 295 296
260 259 259 258 258 258 258 258 257 257 257 257 256 256 256 257 256 256 257 257 257 257 257 257 257 257 258 261 262 261 258 258 259 259 258 258 258 259 260 260 260 262 263 264 264 266 268 269 269 270 271 271 272 277 284 291 296 298 298 298 298 298 298 298 298 298 298 298 297 297 297 297 296 296 296 296 296 296 296 295 295 295 295 295 295
260 259 258 258 258 258 258 258 258 257 257 256 256 256 256 256 256 256 256 256 256 256 256 256 257 257 257 261 263 260 257 257 257 256 257 257 257 257 259 259 259 260 262 263 263 265 267 268 269 269 270 270 271 272 275 280 288 294 297 298 297 297 298 297 297 298 297 298 297 297 296 296 296 296 296 296 296 296 295 295 295 295 295 294 295
260 260 259 259 258 258 258 258 258 257 256 256 255 255 255 255 255 255 256 256 256 256 256 256 256 256 257 261 263 260 256 255 256 256 256 256 256 256 257 258 258 260 261 262 263 264 266 267 268 269 269 270 270 271 272 274 279 285 292 296 297 297 297 297 297 297 298 298 297 297 296 296 296 296 296 296 296 296 295 295 295 295 295 295 295
260 260 260 260 259 259 259 259 258 257 256 256 255 255 255 255 255 255 255 255 255 255 255 255 255 255 256 260 262 259 256 255 255 255 255 256 256 256 257 257 258 260 261 262 262 264 265 267 267 268 269 269 269 270 270 271 273 277 281 287 292 295 297 297 297 297 297 297 297 297 296 296 296 296 296 296 296 296 295 295 295 294 295 294 294
260 260 260 260 260 260 260 259 258 258 257 256 255 255 254 254 254 254 255 255 255 255 255 255 255 255 256 258 259 258 256 255 255 255 255 255 256 256 257 257 258 260 261 262 262 263 265 266 267 267 268 269 269 269 270 270 271 272 274 277 281 285 289 293 295 297 297 297 297 297 296 296 296 296 296 296 296 295 295 295 295 294 294 294 294
260 260 260 260 260 260 259 259 259 258 258 256 255 255 254 254 254 254 254 254 254 254 254 254 254 255 255 256 257 256 255 254 254 255 255 255 256 256 257 258 259 260 262 262 263 264 265 265 266 267 267 268 268 269 269 270 270 270 271 272 274 276 279 283 288 291 294 296 297 297 296 296 296 296 296 296 295 295 295 295 294 294 294 294 294
260 260 260 260 259 259 259 259 259 258 258 257 256 255 254 254 254 254 254 254 254 254 254 254 254 254 254 255 255 255 254 254 254 254 255 255 256 256 257 258 259 261 262 263 263 264 265 265 266 266 267 267 268 269 269 269 270 270 270 270 271 273 275 277 280 284 288 292 295 296 296 296 296 296 295 295 295 295 295 294 294 294 294 294 294
259 260 260 260 260 259 259 259 259 258 258 258 257 256 255 254 254 253 253 253 254 254 254 254 254 253 253 254 254 254 254 254 254 254 255 256 256 257 258 259 259 260 262 263 264 264 265 265 266 266 266 267 267 268 268 269 269 270 270 270 270 271 273 275 277 281 285 289 292 294 294 294 294 295 295 295 295 295 294 294 294 294 294 294 294
259 260 259 260 260 259 259 259 259 259 258 258 257 256 256 255 254 254 253 253 253 253 253 253 253 253 253 253 253 253 253 254 254 255 256 257 257 258 259 260 260 260 261 263 264 264 265 265 266 266 266 267 267 268 268 268 269 269 269 269 270 271 272 274 278 281 285 288 291 292 293 293 293 293 293 293 294 293 293 293 293 293 293 293 293
259 259 259 259 260 259 259 259 259 258 258 257 256 256 255 255 254 254 254 253 253 253 253 253 253 253 253 253 253 253 254 254 254 255 256 257 258 259 260 261 261 261 262 262 263 264 265 265 266 266 266 267 267 267 268 268 268 269 269 269 269 270 272 275 277 281 284 287 289 291 293 293 293 293 293 293 293 293 292 292 293 292 293 293 293
259 259 259 259 259 259 259 258 258 258 258 257 257 256 255 255 255 254 254 254 253 253 253 253 253 253 253 253 253 254 254 254 254 255 257 258 259 260 261 261 261 262 262 262 263 264 264 265 266 266 266 266 267 267 267 268 268 268 269 269 269 270 272 274 276 278 281 285 287 289 291 292 292 292 292 292 292 292 292 292 292 292 292 292 292
259 259 259 259 259 259 259 258 258 257 257 257 256 256 255 255 255 254 254 254 254 253 253 253 253 253 253 253 254 255 255 255 255 256 257 258 259 260 261 261 262 262 262 262 263 263 264 265 265 266 266 266 267 267 267 268 268 268 268 269 269 270 272 274 275 276 278 281 283 285 287 288 289 289 290 291 292 292 292 292 292 292 292 292 292
259 259 259 259 259 259 258 258 257 257 257 257 256 256 256 255 255 254 254 254 254 254 254 253 253 253 253 253 254 255 255 255 255 256 257 258 259 260 261 262 262 263 262 262 263 263 264 264 265 266 266 266 266 267 267 267 268 268 268 268 269 270 271 273 274 274 275 276 278 280 282 283 284 284 285 287 289 290 291 291 291 292 292 292 292
258 258 259 259 259 259 258 258 257 257 257 257 256 256 256 256 255 255 254 254 254 254 254 254 254 254 254 254 254 255 255 256 256 256 257 258 259 260 261 261 262 262 263 263 263 263 264 264 264 265 266 266 266 266 267 267 267 268 268 268 269 269 270 271 272 273 274 274 274 275 276 277 278 278 279 280 282 284 286 287 288 289 290 291 291
Wind_Speed
23 24 25 25 26 27 29 30 31 32 33 33 35 36 37 37 38 39 39 39 39 38 37 38 38 39 39 39 38 39 39 38 37 35 35 36 35 35 34 33 32 33 33 34 33 31 29 28 27 25 25 24 25 26 27 27 25 27 31 34 38 37 29 18 10 10 15 26 34 37 43 47 45 47 51 54 55 54 52 51 55 58 57 56 56
24 24 25 26 27 28 30 32 32 33 34 35 36 36 37 37 36 37 37 37 36 35 35 37 38 36 38 39 37 36 36 36 36 35 35 36 36 36 34 32 31 30 30 32 31 30 27 26 25 24 23 23 23 26 27 26 24 25 29 33 35 33 29 20 12 8 7 18 31 35 40 44 43 45 52 55 54 54 52 51 54 57 56 55 56
24 24 25 26 28 29 31 32 33 34 34 36 37 37 37 36 35 35 36 35 35 35 34 35 36 34 35 36 34 33 32 32 32 33 34 35 36 36 34 32 30 28 27 28 29 28 26 24 24 22 21 22 22 25 26 26 25 25 29 34 35 30 27 27 22 14 9 13 25 33 37 42 43 45 53 59 57 55 52 53 55 55 54 55 56
23 24 25 27 29 30 31 32 33 34 35 36 38 37 36 35 35 34 34 34 33 34 34 34 35 34 33 34 33 32 31 30 30 30 30 30 31 30 29 28 27 26 26 27 27 27 25 23 22 22 20 20 21 23 25 25 25 25 28 34 35 28 25 32 33 26 18 12 19 31 37 39 42 47 51 53 54 55 54 53 53 53 53 54 54
22 24 26 28 29 30 30 32 33 34 36 37 36 36 34 34 34 32 33 34 33 33 34 34 33 32 32 32 32 32 31 31 31 30 30 31 31 30 28 26 27 28 27 27 27 26 24 23 23 22 20 19 19 21 23 24 24 25 26 32 33 29 26 29 34 33 26 18 16 26 33 35 37 44 51 48 44 47 49 50 52 52 51 52 52
22 24 25 27 29 30 32 35 36 36 36 37 35 34 34 35 35 33 32 34 34 33 33 33 33 33 33 33 33 33 32 31 31 31 30 31 32 32 32 30 30 30 29 28 27 27 26 25 25 24 21 19 19 19 22 23 24 24 26 30 31 27 26 27 32 33 29 26 23 22 25 30 33 36 46 51 46 43 43 43 46 49 49 48 48
23 25 27 29 31 34 37 39 39 37 37 37 35 35 36 35 34 34 33 33 34 33 33 33 33 33 34 33 32 32 32 31 30 30 30 30 30 31 31 30 30 30 30 29 28 27 27 27 26 25 23 20 20 20 21 23 24 24 26 30 30 26 27 27 30 30 25 24 24 22 22 28 34 35 42 50 48 45 45 38 34 39 46 48 47
25 27 30 32 33 36 39 39 38 36 34 34 35 36 36 33 32 33 33 33 34 33 33 34 35 34 33 33 33 32 31 31 30 29 29 30 30 30 30 29 29 30 30 30 28 28 29 29 28 26 24 23 22 22 22 23 24 24 25 29 28 26 28 28 28 27 24 20 18 23 23 22 27 33 38 40 33 33 42 41 34 36 42 44 46
27 28 29 31 33 38 40 37 34 32 31 34 36 36 33 32 34 33 31 32 33 33 35 36 35 35 34 33 32 31 30 30 29 28 28 28 28 28 27 27 27 28 28 28 28 27 28 28 28 27 25 24 24 24 24 25 26 25 26 29 26 26 27 28 28 24 20 16 13 18 19 15 19 27 29 31 31 32 41 42 36 38 42 40 42
26 27 27 30 34 37 37 33 30 29 32 36 37 36 34 34 36 35 36 36 33 34 41 40 35 34 33 31 31 30 29 28 28 28 29 29 28 28 26 24 24 25 26 26 26 26 26 26 26 25 25 24 25 25 26 27 27 27 28 32 28 24 26 25 27 26 19 12 12 15 12 10 20 29 30 36 40 40 41 39 33 35 37 32 29
24 25 28 31 33 35 32 30 30 32 35 37 38 37 37 36 37 38 41 41 38 39 43 40 33 31 31 30 30 29 29 29 28 29 30 31 30 29 28 26 24 24 25 25 26 26 26 26 25 25 25 25 26 26 26 27 27 27 29 34 34 27 31 28 25 28 23 14 15 18 13 11 23 35 36 37 39 40 42 41 37 34 31 23 16
23 24 28 30 31 31 31 31 33 35 36 37 38 38 37 37 38 39 39 40 42 45 43 38 34 31 29 28 28 28 29 30 29 30 30 31 31 30 29 27 26 26 25 24 26 27 26 26 26 25 25 25 26 26 25 26 26 27 29 33 36 32 40 42 36 35 31 22 18 19 20 21 27 34 36 38 40 43 43 42 40 39 34 27 21
22 24 26 28 29 29 30 32 34 35 36 37 38 37 37 37 38 38 40 41 41 42 41 38 33 29 26 26 27 28 30 30 30 29 30 30 30 30 29 27 27 27 26 25 26 27 27 26 25 24 24 24 25 24 24 25 25 26 28 30 33 35 43 49 49 49 45 37 28 26 31 33 32 36 43 46 44 41 39 38 41 43 38 33 32
22 24 26 28 29 30 31 33 34 36 37 38 38 37 36 37 38 38 37 37 34 34 35 35 31 27 25 25 25 27 30 30 30 30 29 29 29 28 28 28 27 28 28 26 26 28 28 27 25 24 24 24 23 23 22 23 24 25 26 28 30 35 43 45 49 52 51 47 40 36 39 42 43 46 48 49 49 46 43 42 43 43 39 35 33
22 24 26 28 29 31 32 33 34 36 37 38 38 37 36 36 37 35 31 30 31 31 32 33 33 31 29 26 25 27 31 31 30 31 31 29 28 27 27 27 27 27 27 26 26 27 28 28 27 26 25 25 24 23 23 22 23 24 25 27 27 35 43 43 47 49 49 51 50 47 46 47 50 51 50 51 53 51 48 47 46 42 37 31 27
21 23 26 29 30 31 32 34 35 36 37 37 37 37 37 36 35 34 32 31 31 31 32 33 34 34 34 31 26 28 35 36 32 32 32 29 27 25 26 27 26 26 27 27 27 28 27 26 27 27 27 26 25 24 24 23 23 23 24 25 25 32 39 44 50 51 50 51 52 53 53 53 53 53 56 56 49 42 41 41 41 40 34 26 22
20 23 26 28 30 31 32 33 35 36 36 36 37 37 36 35 34 33 33 33 32 32 33 34 35 35 34 33 30 31 39 42 36 32 32 29 27 24 24 25 25 25 27 27 27 29 29 28 27 26 27 27 26 25 24 23 22 21 22 24 23 28 34 41 46 50 52 51 51 54 55 56 56 57 60 58 50 47 43 36 36 40 32 18 13
21 23 27 29 30 31 31 32 34 35 35 36 37 37 35 34 33 33 33 33 33 34 33 34 36 35 33 35 35 34 38 43 39 34 32 29 27 24 22 23 24 24 24 25 25 26 27 28 29 28 27 27 26 25 25 24 23 21 21 21 21 24 29 36 38 41 45 46 47 51 51 52 55 56 57 56 54 55 50 41 41 42 31 19 16
22 24 27 30 30 30 31 31 32 34 35 35 35 36 36 35 34 33 33 33 34 34 34 34 35 35 33 34 34 32 34 40 39 35 31 29 26 24 21 21 22 22 22 23 25 26 26 27 29 31 30 29 27 26 26 25 23 21 21 19 18 21 29 36 37 37 38 36 37 40 43 46 49 51 54 56 57 60 59 56 53 46 34 29 28
23 25 27 28 29 29 30 31 32 33 34 35 35 35 35 35 35 35 34 33 32 33 34 33 33 35 34 31 30 30 32 36 36 32 30 27 25 24 22 21 21 20 19 20 22 24 24 25 27 29 31 31 30 28 26 25 23 23 23 21 19 23 31 37 39 39 37 33 31 33 37 41 43 46 50 52 55 59 60 60 61 55 45 37 34
23 25 26 27 28 29 30 30 32 33 32 33 35 34 34 34 34 35 34 32 32 33 33 32 34 35 31 27 27 29 30 31 34 33 29 26 26 24 22 21 22 21 20 19 19 20 20 22 23 26 28 29 29 28 26 24 21 23 26 26 25 28 33 36 38 40 37 32 30 31 34 37 38 42 45 47 51 53 51 53 61 62 54 44 40
23 24 26 26 27 29 30 30 31 32 32 33 34 35 34 33 34 34 32 31 32 31 32 35 36 33 27 25 25 27 28 30 34 35 31 26 25 25 25 24 25 24 22 20 19 19 20 22 23 24 25 26 26 26 26 24 23 25 28 28 27 28 34 35 36 37 34 31 31 30 32 35 35 38 43 45 49 50 47 49 56 59 57 56 55
23 24 24 25 26 27 29 30 30 30 32 33 34 33 34 34 34 33 30 30 30 30 34 38 34 26 24 26 25 24 27 31 32 33 33 32 27 24 25 28 29 28 25 23 22 22 21 22 24 25 25 25 26 25 24 24 24 26 26 25 26 29 34 36 35 35 32 30 30 29 31 34 35 37 41 43 47 51 49 49 52 54 54 57 60
22 22 23 24 25 26 27 28 29 29 31 33 33 32 33 33 33 32 30 29 28 28 31 32 26 20 23 26 26 26 28 30 31 31 32 33 34 30 25 25 30 32 30 27 25 25 24 22 23 24 24 25 25 24 23 24 25 25 24 24 27 30 34 34 35 35 30 27 27 27 30 36 38 40 45 47 48 49 46 44 46 46 44 47 52
21 21 23 24 24 26 26 26 28 29 30 31 32 33 33 32 31 31 31 29 27 26 26 24 22 22 23 23 26 29 29 29 29 30 31 33 34 33 30 27 26 29 32 31 28 26 26 25 23 23 25 24 24 24 24 24 24 24 24 26 27 30 33 33 34 33 27 25 26 27 31 39 42 44 47 47 45 42 37 35 36 36 32 33 40
19 20 22 23 24 25 25 25 28 29 29 29 29 31 33 31 29 30 31 29 28 28 26 23 23 22 21 22 26 29 29 28 28 29 30 32 32 32 31 30 29 27 28 31 30 28 28 28 25 24 25 25 24 24 23 23 23 23 25 27 28 32 33 32 33 32 28 27 29 30 34 37 37 37 40 41 40 40 38 36 34 32 31 31 33
18 19 21 22 23 23 24 25 27 29 30 30 28 29 31 31 28 29 30 30 29 28 25 25 24 20 19 23 27 27 27 28 27 27 29 31 31 31 30 28 27 26 25 25 28 27 26 27 27 26 25 24 25 24 23 22 22 23 24 25 30 34 35 36 37 37 35 34 33 32 33 33 31 32 37 39 40 41 41 39 36 32 32 34 32
16 18 19 21 22 22 23 24 25 26 29 31 30 29 30 30 29 30 31 30 30 29 26 26 25 22 21 25 26 23 23 25 26 29 33 33 32 32 30 27 24 23 23 22 23 25 25 25 24 24 24 22 22 22 20 20 21 22 22 24 31 34 36 38 38 36 36 35 32 29 29 30 32 35 38 38 38 40 41 40 38 34 33 33 29
15 16 18 20 21 21 23 24 24 25 25 27 30 30 28 26 27 30 32 32 31 32 31 29 29 28 25 25 25 22 21 25 32 36 36 35 33 32 31 30 27 24 24 23 21 21 21 21 20 19 19 18 16 16 16 16 18 20 22 26 30 31 33 34 31 30 31 31 30 30 31 32 33 35 36 35 35 39 41 41 38 36 35 33 28
15 16 17 19 20 21 22 24 24 25 24 24 27 30 31 28 24 24 29 32 33 33 33 32 34 33 29 29 29 27 26 31 38 40 38 36 35 32 30 30 29 28 27 25 21 19 16 16 16 15 15 14 12 12 13 13 14 16 21 27 29 29 31 32 31 30 33 33 33 34 34 33 32 33 34 33 33 36 40 41 39 38 36 33 28
13 15 16 18 19 20 21 22 23 24 24 23 24 27 31 34 33 28 28 30 33 35 35 36 36 35 33 34 35 33 33 37 40 40 40 40 38 34 31 29 24 21 25 23 19 16 13 9 10 13 14 12 11 12 13 13 13 15 18 24 28 29 30 31 32 32 33 33 33 34 33 33 32 33 34 34 32 33 36 36 36 36 36 34 30
11 13 14 16 18 19 20 21 22 22 23 24 25 24 25 29 35 38 37 35 32 32 35 39 40 38 37 40 41 37 36 39 41 40 41 41 40 37 33 33 29 13 13 20 16 13 12 8 6 9 11 10 11 14 14 13 15 18 18 19 23 27 29 30 32 33 33 32 31 32 34 34 34 34 34 34 32 32 32 32 33 34 33 32 30
8 11 13 15 17 19 19 20 21 21 21 22 24 25 24 22 25 32 40 43 42 40 40 42 43 41 39 41 45 43 40 41 43 43 42 43 42 39 35 37 40 33 14 4 7 6 9 10 9 9 11 11 12 15 16 16 17 20 22 21 22 26 30 32 32 31 31 32 32 32 33 34 34 33 32 33 33 33 32 32 32 31 29 27 27
6 8 11 12 14 17 18 19 19 20 20 21 22 23 24 23 23 25 29 35 40 44 45 46 47 44 39 40 46 47 44 43 45 44 43 43 42 41 43 43 44 45 38 23 13 10 7 6 6 9 12 14 15 14 15 18 20 20 22 24 25 26 27 29 30 28 28 30 31 32 32 34 34 32 31 31 32 32 32 32 31 29 28 26 25
6 7 9 11 13 15 16 17 18 19 19 21 22 22 22 23 24 24 24 24 25 30 36 41 45 44 39 37 43 47 45 44 46 45 44 43 43 48 51 43 34 35 35 28 20 16 15 13 10 9 8 11 16 18 16 18 21 22 22 23 24 25 26 28 29 29 29 29 29 31 33 34 35 36 34 32 31 29 28 30 31 30 29 27 25
6 7 10 11 13 14 15 15 17 18 18 19 21 21 21 22 22 23 23 24 23 24 29 35 40 43 42 39 41 46 46 42 40 42 44 43 45 48 44 28 18 20 24 24 22 19 17 17 17 18 18 14 10 16 20 21 21 22 24 24 24 24 27 29 30 29 29 29 29 31 32 32 33 35 33 32 32 32 30 31 31 30 29 29 27
6 7 10 11 11 12 14 15 16 16 17 19 20 21 21 21 23 23 23 24 24 24 28 33 36 40 45 45 45 47 46 42 42 48 54 55 52 49 40 29 23 23 24 26 26 23 19 20 23 23 24 24 19 9 11 20 23 21 22 24 26 27 28 29 31 31 30 29 28 30 31 32 33 34 32 29 29 30 30 31 31 30 32 32 29
5 6 8 9 10 11 13 15 17 17 19 20 21 22 21 21 22 23 22 24 25 24 27 31 31 33 39 42 42 45 49 52 55 59 63 63 58 49 41 38 34 28 25 29 33 29 23 22 25 27 28 28 28 24 14 3 15 21 23 23 25 29 31 30 30 31 30 28 28 30 31 31 32 34 33 30 28 28 29 31 31 29 29 30 29
4 5 6 6 8 10 12 15 17 18 20 21 21 21 21 21 22 22 22 23 24 24 26 28 28 30 34 36 39 44 47 48 48 49 52 57 59 51 43 40 38 31 27 31 35 32 27 25 26 27 29 30 31 31 29 21 8 8 21 25 25 25 27 28 28 29 30 29 29 31 32 32 32 34 34 32 30 30 30 31 32 31 30 30 31
5 6 7 6 8 10 12 14 16 18 19 20 21 21 20 20 21 21 21 22 22 23 25 26 27 31 35 35 36 40 40 39 41 44 45 51 57 55 48 43 40 36 33 33 33 31 28 27 27 26 27 30 33 33 32 31 27 16 3 15 21 24 26 27 28 29 31 31 31 31 32 33 33 33 32 31 32 32 32 32 34 34 33 32 32
5 6 7 8 9 10 13 15 16 17 18 18 19 19 20 20 20 20 20 21 22 23 24 25 27 32 36 35 34 36 38 39 42 45 45 48 53 56 53 47 41 36 33 33 33 32 29 28 29 29 28 30 32 33 34 34 34 31 24 11 3 12 21 26 29 30 31 30 30 31 32 33 33 32 32 32 33 33 33 32 33 33 32 32 31
4 5 6 8 9 11 13 15 15 16 17 17 18 18 18 19 20 20 20 20 22 23 24 26 30 34 37 36 35 38 42 43 44 45 47 50 53 54 54 51 43 35 33 33 33 32 30 30 30 31 32 33 33 33 35 35 33 33 33 28 21 12 4 9 17 25 28 29 29 30 31 32 33 33 34 33 32 31 31 31 31 32 31 31 31
3 5 6 7 9 11 12 14 15 16 17 17 17 17 18 18 19 20 20 20 21 22 23 25 30 36 38 38 39 42 45 46 46 46 48 50 51 53 55 53 44 36 34 35 35 33 31 32 32 33 34 34 34 34 34 33 32 33 34 32 29 25 19 12 4 8 17 23 27 28 30 32 33 32 31 31 30 30 30 30 30 30 30 30 31
3 4 6 7 9 10 11 13 14 15 16 16 16 16 18 19 19 20 21 20 21 22 22 24 29 34 36 38 41 43 43 44 45 46 48 50 51 52 55 54 47 39 37 38 38 36 35 34 35 35 36 36 37 36 36 35 34 33 33 33 32 29 24 19 14 7 3 12 20 24 26 28 29 29 28 29 30 29 29 29 29 29 29 29 28
2 3 5 7 9 10 11 13 14 14 15 16 17 18 19 19 20 20 21 21 21 22 23 25 28 30 32 36 39 39 39 41 44 45 46 48 50 50 52 53 49 43 39 39 39 39 38 38 37 37 38 39 39 39 39 38 38 36 34 33 33 30 26 21 17 10 3 5 12 19 21 21 23 24 24 26 27 27 27 28 29 29 28 28 28
1 3 5 7 9 10 11 12 13 14 15 16 17 18 19 19 20 20 20 20 21 22 23 25 27 28 30 35 37 36 36 40 43 44 45 47 49 49 51 53 51 45 40 39 40 40 40 40 40 40 39 40 40 41 41 41 40 40 39 37 36 32 27 22 18 11 5 3 8 15 19 19 19 21 22 23 25 24 24 25 26 26 27 28 28
1 2 4 6 8 9 11 12 12 13 15 15 16 17 17 18 19 20 21 21 21 22 23 24 26 27 29 32 34 35 36 38 39 41 44 45 46 48 49 51 51 48 43 40 40 42 42 42 42 42 42 42 42 43 44 44 43 42 41 41 41 38 31 26 21 16 10 6 6 13 19 20 20 20 21 22 23 23 22 22 23 24 25 25 25
1 1 3 5 7 8 9 11 12 13 13 14 15 15 16 17 18 19 21 21 22 23 24 25 25 26 28 30 32 33 35 35 36 39 42 43 44 46 48 49 50 49 45 41 41 42 42 42 43 43 44 45 45 45 45 45 45 45 44 43 43 41 36 31 28 23 17 12 9 10 14 17 18 20 22 24 24 24 23 22 22 23 23 22 22
2 1 2 4 6 7 9 10 11 11 12 13 14 15 15 17 17 18 20 20 21 22 23 24 25 26 27 29 31 33 34 35 36 38 40 41 41 43 45 46 48 48 46 43 42 42 42 43 44 44 45 46 46 46 47 47 47 47 46 45 45 43 41 37 34 30 26 21 18 15 13 13 13 14 16 19 22 24 24 24 23 24 23 21 21
3 1 1 3 4 6 7 8 9 10 10 12 13 14 15 16 17 17 19 20 20 21 22 23 24 25 25 27 30 31 32 34 35 36 37 38 39 41 43 44 46 47 46 44 42 42 43 43 43 44 46 47 48 48 48 49 49 48 47 47 47 46 45 42 39 36 33 31 28 25 22 20 18 15 12 11 13 16 19 20 22 24 25 24 23
4 2 1 2 3 5 5 6 7 9 9 10 12 13 14 15 16 16 17 18 19 20 21 21 22 23 24 25 28 29 30 31 33 34 35 36 37 38 40 42 43 45 45 44 42 42 43 43 43 43 44 46 48 49 48 48 49 49 50 50 50 49 47 46 44 41 38 37 35 33 31 29 27 24 21 18 15 14 14 14 15 17 19 20 21
Wind_Direction
323 320 317 314 312 311 311 312 312 311 310 309 307 306 306 306 305 304 303 301 300 298 297 295 292 294 297 294 292 291 287 286 285 279 275 273 271 271 272 273 275 275 274 273 271 263 255 252 254 258 263 268 270 265 256 249 251 256 259 266 267 246 212 183 165 160 167 168 165 167 167 163 160 159 160 160 163 167 168 167 167 168 170 171 172
320 317 315 314 313 314 315 315 315 314 313 311 310 311 310 308 307 305 303 302 301 298 298 300 294 292 297 294 289 290 287 284 283 278 273 271 270 270 271 272 272 273 275 275 269 260 254 252 253 258 265 268 271 272 264 252 251 257 258 265 263 238 204 177 158 138 138 157 160 164 167 164 162 163 163 161 163 166 167 169 169 170 172 172 173
318 316 315 315 316 317 317 318 318 317 315 314 314 314 312 310 309 307 303 301 302 299 298 302 299 293 295 294 288 288 287 284 283 278 272 270 267 267 267 266 268 270 275 278 273 260 250 249 253 257 264 268 271 276 271 258 251 253 259 265 259 233 193 166 155 149 143 153 158 161 165 166 165 166 166 165 165 166 166 168 170 171 173 173 174
316 316 317 317 318 319 320 321 321 320 318 317 316 314 312 312 310 308 305 302 302 302 299 299 299 294 293 293 289 286 286 284 284 281 277 273 268 267 267 265 266 269 271 277 277 264 248 245 253 257 262 268 271 276 276 265 253 248 257 265 254 226 183 161 158 155 148 151 163 164 164 166 166 167 167 165 164 165 167 168 169 170 173 175 175
317 319 320 320 321 321 322 323 323 321 320 318 317 314 312 313 311 307 306 304 302 303 302 298 298 295 292 292 290 286 284 282 281 281 281 280 277 276 275 271 271 272 271 272 276 270 254 245 251 256 258 263 268 275 276 270 263 251 253 265 253 219 180 161 158 156 152 149 161 168 165 162 162 165 166 163 160 161 164 167 169 171 173 175 177
320 322 322 321 322 323 325 326 325 324 322 319 317 314 312 312 310 305 304 305 304 303 302 299 296 293 292 291 288 286 284 281 279 278 278 278 277 275 272 270 269 269 269 268 270 272 263 250 249 251 252 258 264 272 277 274 271 261 255 264 253 213 178 162 156 154 154 153 155 162 162 158 156 160 165 163 158 157 160 165 169 171 172 173 176
321 325 329 329 329 329 329 330 328 325 323 320 315 312 312 310 307 304 303 305 304 302 302 301 297 293 291 290 287 284 283 281 278 277 275 274 272 271 268 266 265 263 265 266 265 267 265 255 249 248 248 254 259 267 278 277 273 266 261 266 252 209 175 162 155 152 153 154 156 158 158 160 158 158 164 164 161 160 160 160 163 168 171 172 174
327 332 335 334 331 330 330 328 325 321 319 316 312 311 311 307 304 304 304 304 304 302 300 300 298 295 289 286 285 282 280 279 276 274 274 272 269 267 264 261 261 260 260 262 262 262 261 255 250 249 248 252 258 265 272 276 278 272 267 269 251 206 174 161 155 152 153 154 159 160 157 160 158 155 160 161 158 161 163 162 161 165 170 173 175
337 336 334 331 329 330 329 325 321 318 315 313 312 311 309 306 306 305 302 300 300 301 303 301 297 294 289 284 282 280 277 276 274 271 270 270 268 266 262 256 255 256 257 259 259 258 257 253 248 248 250 253 259 266 271 275 279 275 272 274 253 205 175 162 156 152 155 158 162 161 156 156 155 151 156 164 165 166 167 165 163 164 168 171 176
339 336 331 329 329 329 326 320 317 316 314 313 313 311 308 308 309 307 306 304 299 300 307 307 299 290 287 283 280 278 275 273 272 269 267 268 268 267 267 261 255 254 255 256 257 257 256 254 252 251 253 257 259 264 271 277 279 272 267 274 261 211 175 162 157 155 158 161 160 162 158 156 161 160 164 171 170 165 164 164 161 161 165 166 172
337 333 330 328 328 326 322 318 317 317 315 314 313 313 312 310 310 309 309 309 307 305 307 306 299 290 284 282 280 277 274 272 274 272 269 268 268 267 268 267 263 259 255 253 255 257 256 254 255 255 254 257 259 261 268 276 281 274 263 269 269 227 180 163 158 158 160 163 163 165 164 159 169 171 169 168 166 164 166 165 161 160 165 166 169
335 331 329 328 326 323 321 319 319 318 316 315 315 315 315 313 313 312 311 311 312 311 309 304 298 292 284 279 278 276 274 274 276 275 271 269 268 266 265 264 263 261 257 253 252 254 256 255 255 256 254 255 257 260 268 275 282 279 264 267 273 240 191 172 166 164 164 166 167 171 173 168 171 174 170 166 167 168 169 167 165 167 171 173 174
334 330 329 326 324 323 323 322 320 318 318 317 316 317 317 316 315 315 314 313 312 311 312 308 300 291 283 279 279 278 277 277 277 275 273 271 268 267 264 261 261 259 256 253 251 251 254 254 254 254 253 254 255 258 267 277 285 282 270 272 275 244 203 181 175 173 171 170 170 176 178 172 170 175 175 172 169 168 168 169 171 173 175 177 178
335 331 328 326 325 326 325 323 320 319 319 319 318 318 318 318 318 316 315 315 313 313 315 312 305 296 288 281 280 281 280 279 277 275 273 271 268 266 265 262 260 259 255 251 249 250 251 251 253 253 252 252 255 259 266 275 285 285 278 283 275 236 206 188 179 177 176 174 175 179 180 177 175 177 178 174 171 171 173 174 174 175 175 176 176
337 333 329 328 328 327 326 324 321 320 321 321 320 320 320 320 321 320 318 317 317 316 314 311 308 304 297 287 282 284 286 283 278 277 276 273 269 265 263 263 261 259 257 251 247 248 247 248 250 251 254 254 254 259 266 271 281 286 285 286 266 225 202 190 183 180 179 179 180 180 181 183 181 177 176 177 177 177 176 174 173 170 165 161 161
337 333 329 328 328 328 327 325 322 321 322 322 321 321 323 324 324 323 322 320 318 316 313 309 307 304 300 293 284 286 293 291 283 278 276 273 271 266 261 261 260 258 258 255 252 251 250 249 250 250 252 255 255 259 264 269 276 281 285 281 253 217 201 192 187 184 184 184 184 182 183 185 183 179 178 179 179 176 169 165 164 160 158 154 150
336 332 329 328 328 328 327 324 321 321 322 322 322 323 325 325 326 325 324 321 320 318 314 309 305 303 299 295 289 288 295 297 291 283 279 274 270 265 260 260 260 259 258 255 252 252 252 252 252 252 251 252 254 256 257 263 269 273 281 276 244 213 200 193 189 188 188 186 186 186 186 186 184 182 181 178 177 173 163 156 161 163 162 160 151
335 332 329 329 328 327 326 324 322 321 322 322 323 324 326 326 326 326 323 320 319 317 314 310 307 304 299 297 297 293 294 297 295 288 283 277 269 262 260 260 259 259 260 260 257 254 254 253 250 249 250 249 250 251 251 256 261 266 275 269 238 211 198 190 186 188 190 188 187 187 187 186 184 182 180 177 177 175 168 164 168 169 167 169 168
335 332 329 328 327 326 326 326 324 323 322 323 324 325 326 326 325 325 323 320 317 317 316 313 310 310 305 300 301 300 298 299 297 290 285 280 270 261 258 259 259 257 254 258 261 259 257 255 250 246 245 245 246 247 248 252 256 262 269 263 237 212 197 186 182 186 189 189 187 185 184 184 182 180 179 178 178 178 177 175 173 172 173 175 170
336 331 328 327 327 329 330 329 327 325 323 324 326 326 327 327 326 326 324 321 320 319 317 315 313 314 309 301 301 306 306 306 305 297 285 278 272 263 254 252 257 259 252 247 253 255 253 252 249 243 240 241 242 243 246 250 253 259 263 258 238 215 198 186 182 184 187 186 184 181 179 179 179 177 178 179 179 180 182 179 176 177 179 174 171
335 331 329 330 331 333 334 332 329 328 328 327 327 327 330 329 328 327 325 323 323 321 319 319 317 312 307 302 304 310 313 316 318 312 296 279 270 262 254 250 250 252 254 251 248 248 246 246 247 242 237 237 240 242 247 250 252 255 257 255 245 222 200 187 183 183 183 181 175 173 172 173 175 176 178 180 181 182 183 181 180 181 180 175 175
335 332 332 333 335 337 337 335 333 332 332 331 329 329 331 332 331 329 326 324 324 322 322 324 319 311 309 313 313 314 318 322 323 321 315 300 279 260 249 248 248 246 248 249 248 248 246 243 245 244 240 239 240 244 249 252 254 255 255 258 257 232 203 187 180 178 178 173 166 164 167 169 172 176 179 182 184 184 184 185 185 184 183 182 182
336 335 335 337 339 340 339 338 337 336 335 335 333 330 332 334 333 332 330 327 325 325 326 324 318 313 315 319 320 322 324 324 322 323 326 325 315 290 260 246 245 245 244 242 242 246 248 245 243 243 243 242 242 245 249 251 254 258 258 262 261 234 202 183 174 173 173 169 163 162 165 169 172 177 181 184 186 186 187 188 188 187 186 187 187
339 339 340 341 341 341 341 340 340 340 340 339 337 334 334 336 335 334 334 331 326 321 319 318 319 320 319 321 327 331 328 324 322 322 325 328 329 323 301 267 250 245 243 242 241 241 244 246 244 242 242 243 243 246 249 252 257 261 262 263 254 225 195 177 170 170 169 167 165 165 168 173 177 181 184 185 186 187 188 188 190 190 189 187 186
342 342 343 343 343 342 342 343 343 343 344 344 341 337 336 336 336 335 336 334 328 316 311 317 328 327 319 321 331 333 328 324 323 324 325 325 325 325 322 307 283 261 249 245 242 239 240 243 244 243 242 242 244 247 250 256 261 262 261 259 244 212 188 177 170 167 167 170 171 172 175 179 182 184 184 183 182 182 183 184 186 189 187 182 180
343 344 345 345 346 345 344 344 346 346 347 347 344 340 338 337 335 335 336 334 327 319 318 331 335 323 318 329 334 330 328 328 325 323 325 325 323 321 319 315 308 295 273 254 245 242 239 237 238 240 239 240 243 246 251 258 264 268 266 253 227 200 186 179 172 169 172 176 178 179 180 181 182 180 177 175 176 178 180 179 179 182 181 174 170
344 346 348 346 347 348 346 345 346 347 348 348 346 344 343 339 336 337 336 332 327 325 333 341 335 319 322 336 335 330 330 331 327 325 326 325 322 319 316 310 306 306 295 268 247 241 238 234 233 234 235 239 244 247 254 260 264 271 268 242 211 194 187 184 179 177 178 180 180 180 178 174 170 168 169 171 175 179 181 179 176 177 176 170 164
348 349 350 348 349 349 348 347 347 348 348 347 345 344 344 342 339 339 339 336 333 336 340 340 333 327 333 339 335 331 334 333 329 329 329 327 323 318 314 308 301 298 296 276 247 235 234 231 229 230 232 236 241 244 250 255 259 264 255 223 200 192 189 187 185 182 179 178 175 170 166 165 165 166 170 173 176 179 181 180 179 176 171 168 165
353 353 352 351 352 351 349 349 349 347 346 347 346 345 346 344 338 338 342 344 344 345 345 343 338 336 339 342 340 335 334 333 333 334 333 331 326 318 310 304 294 285 284 277 251 230 226 225 222 222 224 226 231 235 238 243 250 252 235 209 195 191 189 187 187 183 176 171 167 165 165 167 169 170 172 174 177 179 181 181 180 176 172 172 174
354 354 354 354 354 351 349 349 350 348 346 346 345 345 349 351 346 341 342 346 350 354 352 349 347 345 346 350 348 343 338 336 338 340 339 337 334 326 317 308 292 274 268 267 251 226 214 214 214 214 214 215 219 221 222 227 234 232 216 201 192 190 189 188 187 181 175 171 170 170 171 171 170 171 173 176 178 180 182 182 180 176 175 177 178
353 352 354 355 355 352 349 349 349 349 347 347 346 345 346 350 353 354 352 349 352 358 359 357 354 353 356 357 354 350 348 345 346 347 347 346 344 340 337 335 318 275 250 248 242 224 212 210 211 210 208 208 212 214 212 213 217 214 206 197 192 190 190 190 187 181 176 173 172 172 171 171 171 173 176 176 175 177 180 182 180 179 181 183 180
352 351 354 356 356 354 351 350 350 349 348 349 349 348 345 345 349 354 356 357 356 357 1 2 359 356 360 2 1 358 354 353 353 354 353 354 354 353 357 4 6 346 244 232 229 218 212 217 214 210 210 208 210 210 208 207 209 205 199 196 194 192 191 190 188 184 178 174 172 172 173 173 173 175 176 174 172 172 175 179 181 183 184 185 182
357 354 357 358 357 354 353 352 351 351 350 348 348 350 350 346 343 345 349 355 0 3 6 6 1 358 359 3 5 2 359 359 360 359 360 1 0 2 11 19 24 28 31 278 258 243 226 222 214 212 214 212 212 211 206 205 207 202 197 196 195 193 192 190 187 184 181 177 174 174 175 174 173 173 174 173 171 172 174 178 181 182 182 183 182
7 5 4 1 357 354 353 353 352 352 353 352 350 350 350 349 346 342 342 349 356 360 1 3 3 0 358 2 6 5 2 3 3 2 3 5 3 10 23 28 26 28 30 23 5 351 328 288 247 228 223 217 214 213 208 205 204 201 198 197 195 191 188 186 184 183 182 179 176 175 175 174 173 172 172 173 174 174 176 178 178 179 182 183 181
20 22 19 11 2 356 355 357 357 357 356 355 353 353 351 350 350 350 346 345 347 347 349 354 358 0 359 1 5 6 4 5 6 5 7 9 10 19 28 27 17 15 17 13 6 3 358 349 336 318 291 244 219 211 207 205 203 200 197 194 190 185 182 182 184 185 183 179 178 178 177 175 175 175 174 175 175 176 177 179 180 181 182 181 178
24 27 26 17 5 359 359 3 5 2 358 357 356 356 356 355 354 352 350 349 348 347 346 348 353 358 2 4 6 7 7 6 5 6 11 14 17 23 26 17 357 359 4 0 358 359 359 359 356 351 346 331 268 222 209 205 202 200 196 190 183 181 182 184 185 184 182 182 182 180 178 178 178 178 177 177 178 179 179 181 182 182 182 180 178
27 29 27 14 0 359 5 11 12 9 5 4 2 360 360 360 358 356 354 352 351 350 348 349 352 357 1 4 6 5 4 5 7 13 18 20 21 23 21 10 360 2 3 2 0 355 352 358 2 2 2 359 352 323 225 207 202 198 193 188 184 184 185 186 186 183 183 184 182 180 180 181 180 180 179 180 182 182 180 180 182 183 184 182 180
33 35 30 8 354 1 12 16 18 16 12 10 7 3 2 2 0 359 357 355 355 353 350 351 355 354 353 356 1 2 4 9 13 14 16 17 18 18 14 9 6 4 2 5 4 359 356 359 1 4 9 10 9 10 8 245 203 195 189 187 188 189 188 186 185 184 183 183 181 181 183 183 182 183 182 182 184 184 181 181 182 182 183 184 184
49 49 44 16 2 13 20 21 22 20 16 12 7 3 3 2 1 359 358 356 356 356 353 353 357 356 351 352 359 3 5 9 10 8 7 10 13 14 12 8 5 2 0 2 2 2 3 3 2 6 12 14 16 19 20 19 22 189 190 189 190 191 188 185 184 185 185 183 182 183 184 183 184 185 185 185 185 185 182 182 182 182 184 188 191
57 51 49 36 24 26 29 28 28 25 20 13 6 2 2 1 359 357 356 355 355 355 355 354 355 356 355 356 2 6 6 5 5 4 4 6 9 12 12 9 4 2 3 3 3 3 5 5 5 9 13 16 19 21 21 23 27 33 128 189 193 191 188 186 186 186 187 187 185 184 185 185 185 186 187 188 188 186 184 184 185 186 188 189 190
63 54 50 43 35 33 35 33 30 28 24 17 10 4 1 1 0 358 356 356 354 353 354 355 354 356 358 0 4 9 11 9 7 6 6 6 8 11 11 8 5 5 6 6 4 3 4 6 10 13 15 19 21 22 22 25 28 29 32 39 144 188 190 191 191 190 189 189 187 185 186 187 186 186 189 190 189 187 187 186 186 187 189 190 189
72 61 54 49 41 38 37 34 30 29 27 21 16 10 2 1 2 1 358 357 357 355 354 354 354 358 3 4 5 10 14 14 10 8 7 7 9 11 11 10 9 10 10 9 7 6 6 10 13 16 19 21 22 23 24 24 23 25 28 32 36 43 88 184 193 193 192 191 189 188 188 187 187 189 191 191 188 187 187 187 187 188 188 189 189
82 68 59 53 48 43 41 36 32 31 29 23 17 12 7 5 5 4 2 0 358 357 355 352 353 358 3 6 8 12 14 13 11 9 8 8 9 10 12 12 13 14 15 13 12 11 12 15 18 20 22 24 25 26 27 26 24 24 24 26 29 31 31 33 61 186 194 194 193 191 189 189 190 191 192 190 188 186 187 188 187 188 189 188 188
90 76 68 63 56 48 45 42 36 32 29 25 21 16 12 10 8 7 5 3 360 358 356 353 354 357 0 4 8 11 12 10 10 9 9 8 9 11 12 13 15 17 17 16 16 16 18 20 21 23 24 26 28 29 29 29 28 27 24 22 23 24 23 22 22 19 197 195 196 194 191 191 192 192 190 190 188 186 186 187 187 188 189 188 187
107 79 67 64 61 54 48 43 40 35 30 27 24 20 16 13 11 9 7 4 1 359 357 356 357 359 360 2 6 8 8 8 10 10 10 10 11 12 14 16 17 18 18 17 17 19 20 22 22 23 24 26 27 29 30 30 30 29 26 24 22 20 19 19 18 15 29 178 189 191 190 190 191 191 190 189 189 188 188 188 187 188 188 187 188
128 82 63 57 56 52 48 44 40 36 33 28 23 19 16 14 12 10 8 5 3 0 358 358 359 359 0 3 6 7 7 8 9 10 11 13 14 15 17 19 21 20 20 20 20 20 22 23 24 24 25 25 27 29 30 30 30 29 28 27 24 23 24 27 29 34 57 126 173 183 184 184 185 187 188 187 187 188 189 189 189 189 189 189 191
184 73 60 56 52 47 44 42 39 35 33 30 24 19 15 14 12 11 9 8 6 3 1 1 0 359 0 2 4 6 8 9 9 9 11 14 16 17 19 22 23 24 24 23 22 23 23 24 24 25 25 26 28 29 29 30 29 29 28 28 27 28 32 36 40 46 61 90 149 176 181 181 181 183 184 183 183 185 186 186 188 190 190 191 192
199 86 51 51 51 45 39 38 36 33 31 28 24 20 16 14 14 12 10 9 8 6 4 3 1 0 0 1 3 5 8 9 9 12 14 16 18 20 22 24 25 26 27 26 24 25 25 25 25 26 27 27 28 29 29 29 29 29 28 28 29 32 38 44 45 50 61 77 104 144 167 174 177 181 183 183 184 184 183 184 186 186 187 189 190
209 150 48 46 46 40 36 35 31 29 29 25 21 19 17 15 14 14 11 9 9 7 6 4 3 2 1 1 4 7 9 10 12 14 17 18 19 21 24 25 27 28 29 27 25 25 26 26 27 28 28 28 29 29 29 29 29 29 29 29 32 37 43 47 49 52 60 69 81 97 115 131 144 158 171 180 184 185 184 183 182 181 180 181 182
215 195 44 48 45 35 33 33 29 27 28 23 18 16 15 14 14 13 11 9 8 7 7 6 4 4 3 3 4 6 8 9 12 14 16 18 20 22 24 26 28 29 30 29 27 26 27 27 28 29 29 29 29 30 29 29 29 29 30 33 36 40 45 48 50 54 58 61 67 76 83 90 96 101 112 136 159 172 177 179 179 179 180 180 179
219 216 20 47 44 30 25 26 24 24 23 20 17 14 11 11 12 11 9 8 7 6 5 5 6 6 6 5 6 8 9 10 12 14 16 19 21 22 23 25 27 29 30 31 29 28 28 28 28 29 30 30 30 30 30 30 29 31 34 38 40 42 45 47 50 53 56 59 62 66 69 72 74 74 75 82 97 111 127 142 155 164 171 176 179